Orbital Elements at Epoch 2459000.5 (2020-May-31.0) TDB
Reference: JPL 10 (heliocentric ecliptic J2000)
Element | Value | Uncertainty (1-sigma) | Units |
e | .04892529883987779 | 6.7986e-08 | |
a | 2.979678355211813 | 4.582e-08 | au |
q | 2.833896701236359 | 1.9733e-07 | au |
i | 10.33725671333437 | 8.3587e-06 | deg |
node | 167.1278992443011 | 3.9158e-05 | deg |
peri | 41.80766277865617 | 9.1527e-05 | deg |
M | 239.1718826652364 | 8.4359e-05 | deg |
tp | 2459631.047798941509 (2022-Feb-20.54779894) | 0.0004446 | TDB |
period | 1878.678677000571 5.14 | 4.3334e-05 1.186e-07 | d yr |
n | .1916240410918821 | 4.42e-09 | deg/d |
Q | 3.125460009187266 | 4.8062e-08 | au |
|
| | Orbit Determination Parameters
Additional Information
|